Regional Weather Roundup
Issued by NWS

Home | Current Version | Previous Version | Text Only | Print | Product List | Glossary Off
Versions: 1 2 3 4 5 6 7 8 9 10 11 12 13 14 15 16 17 18 19 20 21 22 23 24 25 26 27 28 29 30 31 32 33 34 35 36 37 38 39 40 41 42 43 44 45 46 47 48 49 50

000
ASUS43 KLSX 230459
RWRMO

WEATHER SUMMARY FOR MISSOURI
NATIONAL WEATHER SERVICE SPRINGFIELD MO
1200 AM CDT WED JUL 23 2014

NOTE: "FAIR" INDICATES FEW OR NO CLOUDS BELOW 12,000 FEET WITH NO
       SIGNIFICANT WEATHER AND/OR OBSTRUCTIONS TO VISIBILITY.
       CURRENT SKY AND/OR WEATHER CONDITIONS ARE NOT AVAILABLE FOR
       CHILLICOTHE AND FARMINGTON.

MOZ001>031-035>038-043-044-053-054-230600-
...NORTHERN AND WESTERN MISSOURI...

CITY           SKY/WX    TMP DP  RH WIND       PRES   REMARKS
KANSAS CTY INT PTCLDY    82  78  88 N12       30.08R HX  91
KANSAS C DTWN  CLEAR     87  78  74 N7        30.05R HX 100
LEE`S SUMMIT   CLEAR     82  76  81 CALM      30.07R
ST JOSEPH      PTCLDY    80  71  74 N10       30.10R
CHILLICOTHE      N/A     83  74  74 N10G18    30.08R
KIRKSVILLE     PTCLDY    78  73  84 N8        30.08R

$$
MOZ066>068-077>081-088>096-101>105-230600-
...SOUTHWEST MISSOURI...

CITY           SKY/WX    TMP DP  RH WIND       PRES   REMARKS
SPRINGFIELD    CLEAR     80  75  84 CALM      30.08S
JOPLIN         CLEAR     82  75  79 SW8       30.07S

$$
MOZ032>034-039>042-045>050-055>058-069>072-230600-
...CENTRAL MISSOURI...

CITY           SKY/WX    TMP DP  RH WIND       PRES   REMARKS
COLUMBIA       PTCLDY    81  78  91 SW5       30.03S
JEFFERSON CITY PTCLDY    81  77  88 CALM      30.00F
ROLLA          PTCLDY    80  73  79 SW9       30.04F
SEDALIA        PTCLDY    82  78  88 S7        30.04F FOG     HX  91
OSAGE BEACH    CLEAR     79  73  83 CALM      30.04S

$$
MOZ051-052-059>065-230600-
...EAST CENTRAL MISSOURI...

CITY           SKY/WX    TMP DP  RH WIND       PRES   REMARKS
ST LOUIS INTL  CLOUDY    83  72  69 S8        30.01F
SPIRIT OF STL  CLOUDY    81  73  76 S3        29.99S
ST CHARLES     CLOUDY    77  73  87 E5        29.99F

$$
MOZ072>076-082>087-097>100-106>115-230600-
...SOUTH CENTRAL AND SOUTHEAST MISSOURI...

CITY           SKY/WX    TMP DP  RH WIND       PRES   REMARKS
CAPE GIRARDEAU PTCLDY    70  67  90 SW5       30.04F FOG
FARMINGTON     PTCLDY    75  68  78 S5        30.08F
POPLAR BLUFF   CLEAR     70  66  87 CALM      30.05S FOG
WEST PLAINS    CLEAR     75  69  81 S3        30.11R

$$


USA.gov is the U.S. government's official web portal to all federal, state and local government web resources and services.